Location: Huntsville
(41.2590°N, 111.7678°W)
Time: 08:53:32
(UTC+00:00)

deb Explorer IX - Visible Passes

Search period start: 25 September 2022 00:00
Search period end: 05 October 2022 00:00
Orbit: 530 x 1066 km, 38.8° (Epoch: 20 September)

Date Brightness Start Highest point End Pass type
(mag) Time Alt. Az. Time Alt. Az. Time Alt. Az.
01 Oct ? 12:53:36 10° S 12:56:28 15° SE 12:59:34 10° ESE visible
02 Oct ? 12:23:47 10° S 12:26:05 13° SE 12:28:31 10° ESE visible
03 Oct ? 11:54:11 10° SSE 11:55:42 11° SE 11:57:15 10° ESE visible
